Location: Oberstdorf
(47.4188°N, 10.2969°E)
Time: 21:00:34
(UTC+01:00)

ISS - Pass Details

Date: 12 January 2018
Orbit: 402 x 407 km, 51.6° (Epoch: 23 January)

Event Time Altitude Azimuth Distance (km) Brightness Sun altitude
Exits shadow 06:23:27 43° 271° (W) 581 -3.5 -16.3°
Maximum altitude 06:24:17 64° 210° (SSW) 455 -3.7 -16.2°
Drops below altitude 10° 06:27:33 10° 128° (SE) 1,463 0.1 -15.7°
Sets 06:29:38 0° 125° (SE) 2,322 1.4 -15.3°
